Home   Weather   Melilla   Past weeks

Flag for Spain Past Weather in Melilla, Melilla, Spain — Yesterday and Last 2 Weeks

Now
59 °F

Overcast.


Feels Like: 55 °F
Forecast: 59 / 62 °F
Wind: 18 mph from Northeast

Location: Melilla

Current Time: Feb 21, 2017 at 5:54:34 pm

Latest Report: Feb 21, 2017 at 4:00 pm


Visibility: 9 mi

Pressure: 30.03 "Hg

Humidity: 84%

Dew Point: 54 °F

Location of MelillaLocation

Past Weather in Melilla — Graph

°F

Melilla Temperature Yesterday

Maximum temperature yesterday: 59 °F (at 2:00 pm)
Minimum temperature yesterday: 55 °F (at 4:00 am)
Average temperature yesterday: 57 °F

High & Low Weather Summary for the Past Weeks

 TemperatureHumidityPressure
High70 °F (Feb 13, 12:00 am)95% (Feb 20, 3:00 am)30.42 "Hg (Feb 20, 3:00 am)
Low50 °F (Feb 9, 6:00 am)34% (Feb 7, 1:00 pm)29.44 "Hg (Feb 12, 10:00 pm)
Average58 °F73%30.10 "Hg
* Reported Feb 6 4:00 pm — Feb 21 4:00 pm, Melilla, Weather by CustomWeather, © 2017

Note: Actual official high and low records may vary slightly from our data, if they occured in-between our weather recording intervals... More about our weather records

Advertising

Melilla Weather History for the Previous 24 Hours

Scroll right to see more
 ConditionsComfort  
Time TempWeatherWind HumidityBarometerVisibility
4:00 pm
Tue, Feb 21
59 °FOvercast.18 mph84%30.03 "Hg9 mi
3:00 pm59 °FCool.20 mph84%30.05 "HgN/A
2:00 pm59 °FCool.15 mph84%30.06 "HgN/A
1:00 pm59 °FFog.17 mph85%30.09 "Hg6 mi
12:00 pm58 °FCool.18 mph85%30.09 "HgN/A
11:00 am58 °FCool.20 mph86%30.09 "HgN/A
10:00 am58 °FFog.18 mph87%30.09 "Hg6 mi
9:00 am58 °FCool.18 mph88%30.07 "HgN/A
8:00 am58 °FCool.20 mph88%30.06 "HgN/A
7:00 am58 °FFog.22 mph87%30.06 "Hg5 mi
6:00 am58 °FCool.22 mph88%30.05 "HgN/A
5:00 am58 °FCool.22 mph87%30.06 "HgN/A
4:00 am58 °FCool.24 mph85%30.06 "HgN/A
3:00 am58 °FCool.24 mph86%30.07 "HgN/A
2:00 am58 °FCool.23 mph87%30.08 "HgN/A
1:00 am58 °FCool.22 mph85%30.09 "HgN/A
12:00 am58 °FCool.20 mph84%30.10 "HgN/A
11:00 pm
Mon, Feb 20
58 °FCool.17 mph85%30.11 "HgN/A
10:00 pm58 °FCool.15 mph85%30.10 "HgN/A
9:00 pm58 °FCool.17 mph85%30.09 "HgN/A
8:00 pm58 °FCool.18 mph85%30.07 "HgN/A
7:00 pm58 °FFog.18 mph86%30.05 "Hg5 mi
6:00 pm58 °FCool.24 mph85%30.02 "HgN/A
5:00 pm58 °FCool.24 mph85%30.01 "HgN/A
Weather by CustomWeather, © 2017

See weather overviewHow to use our weather pages